sat.trackr.live / text

‹ back to catalog

STARLINK-31619

NORAD 59531 · 2024-073W

PAYLOAD ACTIVE UNKNOWN

§ Identity

Operator
Country
US
Launch date
2024-04-17
Launch site
AFETR
Launch vehicle
Mass (kg)
RCS (m²)

Purposes: comms

External: N2YO · Heavens-Above · Gunter

§ Orbital elements

Epoch: 2026-05-24T18:37:18.518592Z

Period
94.27 min
Inclination
42.9961°
Eccentricity
0.0001402
Mean motion
15.27583406 rev/d
Perigee alt
482.1 km
Apogee alt
484.0 km
Semi-major
6,861.2 km
B*
1.5270e-4
RAAN
248.1846°
Arg perigee
278.2709°
Mean anomaly
81.7984°
Rev number
11,893

§ Raw data

STARLINK-316191 59531U 24073W   26144.77590878  .00003943  00000+0  15270-3 0  99932 59531  42.9961 248.1846 0001402 278.2709  81.7984 15.27583406118931

JSON: /api/v1/satellites/59531 · /tle

For live sub-satellite position, see the globe view (requires WebGL).

§ Visibility from observer

Set your observer location to see the next 7 days of passes ≥ 10°. The values pass through the URL so the page stays shareable.

No JS? Fill the form by hand. The geolocation button needs JavaScript.